When you browse on this site, cookies collect data to enhance your experience and personalize the content and advertising you see.
Visit our Privacy Policy to learn more. By continuing to use the site, you agree to this use of cookies and data.
  • In United Kingdom
  • List of Countries
  • For 7 days
  • Water Temperature
  • Weather Map
  • Weather Widgets
  • user-avatar
    Login

    Hourly Weather Ropotamo

    Today, 23 February, Sunday

    Time Temperature Precipitation Wind Pressure Humidity
    00:00 +3°C° 0 mm 2 mps 768 mmHg 84%
    01:00 +2°C° 0 mm 2 mps 768 mmHg 85%
    02:00 +2°C° 0 mm 2 mps 767 mmHg 86%
    03:00 +2°C° 0 mm 2 mps 767 mmHg 86%
    04:00 +2°C° 0 mm 2 mps 767 mmHg 86%
    05:00 +2°C° 0 mm 2 mps 766 mmHg 85%
    06:00 +2°C° 0 mm 2 mps 766 mmHg 83%
    07:00 +3°C° 0 mm 2 mps 766 mmHg 81%
    08:00 +4°C° 0 mm 2 mps 766 mmHg 79%
    09:00 +5°C° 0 mm 2 mps 766 mmHg 74%
    10:00 +7°C° 0 mm 3 mps 766 mmHg 68%
    11:00 +8°C° 0 mm 3 mps 765 mmHg 63%
    12:00 +9°C° 0 mm 3 mps 765 mmHg 60%
    13:00 +10°C° 0 mm 3 mps 764 mmHg 56%
    14:00 +11°C° 0 mm 3 mps 764 mmHg 53%
    15:00 +10°C° 0 mm 3 mps 763 mmHg 57%
    16:00 +10°C° 0 mm 4 mps 763 mmHg 61%
    17:00 +8°C° 0 mm 4 mps 762 mmHg 65%
    18:00 +7°C° 0 mm 4 mps 762 mmHg 67%
    19:00 +7°C° 0 mm 4 mps 762 mmHg 68%
    20:00 +6°C° 0 mm 4 mps 762 mmHg 70%
    21:00 +6°C° 0 mm 4 mps 761 mmHg 70%
    22:00 +5°C° 0 mm 4 mps 761 mmHg 70%
    23:00 +5°C° 0 mm 4 mps 760 mmHg 70%

    Tomorrow, 24 February, Monday

    Time Temperature Precipitation Wind Pressure Humidity
    00:00 +5°C° 0 mm 4 mps 760 mmHg 70%
    01:00 +5°C° 0 mm 4 mps 759 mmHg 69%
    02:00 +5°C° 0 mm 4 mps 759 mmHg 69%
    03:00 +6°C° 0 mm 4 mps 758 mmHg 67%
    04:00 +6°C° 0 mm 4 mps 757 mmHg 66%
    05:00 +7°C° 0 mm 4 mps 756 mmHg 65%
    06:00 +7°C° 0 mm 5 mps 756 mmHg 65%
    07:00 +7°C° 0 mm 5 mps 756 mmHg 66%
    08:00 +8°C° 0 mm 6 mps 756 mmHg 66%
    09:00 +10°C° 0 mm 6 mps 756 mmHg 62%
    10:00 +13°C° 0 mm 6 mps 756 mmHg 57%
    11:00 +15°C° 0 mm 7 mps 756 mmHg 52%
    12:00 +15°C° 0 mm 7 mps 756 mmHg 51%
    13:00 +16°C° 0 mm 8 mps 756 mmHg 50%
    14:00 +16°C° 0 mm 9 mps 756 mmHg 49%
    15:00 +15°C° 0 mm 8 mps 756 mmHg 50%
    16:00 +13°C° 0 mm 8 mps 757 mmHg 51%
    17:00 +12°C° 0 mm 7 mps 757 mmHg 52%
    18:00 +10°C° 0 mm 6 mps 758 mmHg 52%
    19:00 +9°C° 0 mm 5 mps 759 mmHg 52%
    20:00 +7°C° 0 mm 4 mps 761 mmHg 52%
    21:00 +7°C° 0 mm 4 mps 761 mmHg 55%
    22:00 +6°C° 0 mm 4 mps 762 mmHg 58%
    23:00 +5°C° 0 mm 3 mps 762 mmHg 61%

    Day after tomorrow, 25 February, Tuesday

    Time Temperature Precipitation Wind Pressure Humidity
    00:00 +5°C° 0 mm 3 mps 763 mmHg 63%
    01:00 +6°C° 0 mm 2 mps 763 mmHg 64%
    02:00 +5°C° 0 mm 2 mps 763 mmHg 66%
    03:00 +5°C° 0 mm 2 mps 763 mmHg 66%
    04:00 +5°C° 0 mm 1 mps 763 mmHg 67%
    05:00 +5°C° 0 mm 1 mps 762 mmHg 67%
    06:00 +5°C° 0 mm 1 mps 762 mmHg 67%
    07:00 +6°C° 0 mm 1 mps 762 mmHg 67%
    08:00 +6°C° 0 mm 1 mps 762 mmHg 66%
    09:00 +7°C° 0 mm 2 mps 762 mmHg 60%
    10:00 +9°C° 0 mm 3 mps 762 mmHg 54%
    11:00 +10°C° 0 mm 3 mps 762 mmHg 48%
    12:00 +11°C° 0 mm 4 mps 761 mmHg 46%
    13:00 +12°C° 0 mm 4 mps 760 mmHg 45%
    14:00 +13°C° 0 mm 5 mps 760 mmHg 44%
    15:00 +12°C° 0 mm 5 mps 759 mmHg 46%
    16:00 +12°C° 0 mm 5 mps 758 mmHg 49%
    17:00 +11°C° 0 mm 4 mps 758 mmHg 51%
    18:00 +10°C° 0 mm 4 mps 757 mmHg 53%
    19:00 +8°C° 0 mm 4 mps 757 mmHg 54%
    20:00 +7°C° 0 mm 4 mps 757 mmHg 56%
    21:00 +7°C° 0 mm 4 mps 756 mmHg 56%
    22:00 +7°C° 0 mm 4 mps 755 mmHg 56%
    23:00 +7°C° 0 mm 4 mps 755 mmHg 56%

    26 February, Wednesday

    Time Temperature Precipitation Wind Pressure Humidity
    00:00 +7°C° 0 mm 4 mps 754 mmHg 57%
    01:00 +7°C° 0 mm 4 mps 754 mmHg 58%
    02:00 +7°C° 0 mm 5 mps 753 mmHg 59%
    03:00 +7°C° 0 mm 5 mps 753 mmHg 60%
    04:00 +7°C° 0 mm 4 mps 752 mmHg 61%
    05:00 +7°C° 0 mm 4 mps 752 mmHg 63%
    06:00 +7°C° 0 mm 4 mps 752 mmHg 65%
    07:00 +8°C° 0 mm 4 mps 752 mmHg 67%
    08:00 +8°C° 0 mm 4 mps 752 mmHg 69%
    09:00 +10°C° 0 mm 4 mps 751 mmHg 68%
    10:00 +12°C° 0 mm 5 mps 751 mmHg 67%
    11:00 +14°C° 0 mm 5 mps 751 mmHg 66%
    12:00 +15°C° 0 mm 6 mps 751 mmHg 65%
    13:00 +15°C° 0 mm 6 mps 750 mmHg 63%
    14:00 +16°C° 0 mm 6 mps 750 mmHg 61%
    15:00 +16°C° 0 mm 6 mps 749 mmHg 64%
    16:00 +15°C° 0 mm 6 mps 749 mmHg 67%
    17:00 +15°C° 0 mm 6 mps 748 mmHg 70%
    18:00 +14°C° 0 mm 6 mps 748 mmHg 72%
    19:00 +14°C° 0 mm 7 mps 748 mmHg 74%
    20:00 +12°C° 0 mm 7 mps 749 mmHg 76%
    21:00 +12°C° 0 mm 7 mps 749 mmHg 77%
    22:00 +12°C° 0 mm 8 mps 748 mmHg 77%
    23:00 +12°C° 0 mm 8 mps 748 mmHg 78%

    27 February, Thursday

    Time Temperature Precipitation Wind Pressure Humidity
    00:00 +12°C° 0 mm 8 mps 748 mmHg 78%
    01:00 +12°C° 0 mm 8 mps 748 mmHg 78%
    02:00 +12°C° 0 mm 8 mps 748 mmHg 78%
    03:00 +12°C° 0 mm 8 mps 748 mmHg 78%
    04:00 +12°C° 0 mm 8 mps 747 mmHg 78%
    05:00 +12°C° 0 mm 8 mps 747 mmHg 78%
    06:00 +12°C° 0 mm 8 mps 747 mmHg 77%
    07:00 +12°C° 0 mm 8 mps 747 mmHg 76%
    08:00 +12°C° 0 mm 8 mps 747 mmHg 76%
    09:00 +13°C° 0.2 mm 8 mps 747 mmHg 72%
    10:00 +13°C° 0.2 mm 8 mps 747 mmHg 69%
    11:00 +15°C° 0.2 mm 8 mps 747 mmHg 65%
    12:00 +16°C° 0.4 mm 8 mps 746 mmHg 61%
    13:00 +16°C° 0.4 mm 9 mps 745 mmHg 57%
    14:00 +17°C° 0.4 mm 9 mps 745 mmHg 52%
    15:00 +15°C° 0.1 mm 9 mps 745 mmHg 55%
    16:00 +13°C° 0.1 mm 8 mps 745 mmHg 58%
    17:00 +12°C° 0.1 mm 8 mps 745 mmHg 61%
    18:00 +10°C° 0.2 mm 8 mps 746 mmHg 68%
    19:00 +7°C° 0.2 mm 9 mps 746 mmHg 75%
    20:00 +5°C° 0.2 mm 9 mps 747 mmHg 82%
    21:00 +3°C° 0.4 mm 9 mps 748 mmHg 80%
    22:00 +3°C° 0.4 mm 10 mps 749 mmHg 78%
    23:00 +2°C° 0.4 mm 10 mps 750 mmHg 76%

    28 February, Friday

    Time Temperature Precipitation Wind Pressure Humidity
    00:00 +2°C° 0.1 mm 9 mps 751 mmHg 76%
    01:00 +2°C° 0.1 mm 8 mps 752 mmHg 76%
    02:00 +3°C° 0.1 mm 7 mps 753 mmHg 76%
    03:00 +2°C° 0.1 mm 6 mps 753 mmHg 76%
    04:00 +2°C° 0.1 mm 5 mps 754 mmHg 75%
    05:00 +2°C° 0.1 mm 5 mps 754 mmHg 75%
    06:00 +2°C° 0 mm 5 mps 755 mmHg 73%
    07:00 +2°C° 0 mm 5 mps 756 mmHg 70%
    08:00 +2°C° 0 mm 5 mps 757 mmHg 67%
    09:00 +3°C° 0 mm 5 mps 757 mmHg 62%
    10:00 +6°C° 0 mm 5 mps 757 mmHg 56%
    11:00 +7°C° 0 mm 6 mps 758 mmHg 51%
    12:00 +8°C° 0 mm 5 mps 758 mmHg 46%
    13:00 +9°C° 0 mm 5 mps 758 mmHg 40%
    14:00 +11°C° 0 mm 4 mps 758 mmHg 35%
    15:00 +10°C° 0 mm 4 mps 758 mmHg 37%
    16:00 +10°C° 0 mm 4 mps 757 mmHg 40%
    17:00 +10°C° 0 mm 4 mps 757 mmHg 42%
    18:00 +8°C° 0 mm 4 mps 758 mmHg 48%
    19:00 +7°C° 0 mm 5 mps 758 mmHg 54%
    20:00 +6°C° 0 mm 5 mps 758 mmHg 59%
    21:00 +6°C° 0 mm 5 mps 759 mmHg 59%
    22:00 +5°C° 0 mm 5 mps 759 mmHg 60%
    23:00 +5°C° 0 mm 4 mps 759 mmHg 60%
    Show more